Flag for Indonesia Weather past 2 weeks in Makassar, South Sulawesi, Indonesia

Now
77 °F

Passing clouds.


Feels Like: 78 °F
Forecast: 78 / 84 °F
Wind: 2 mph from Southeast

Location: Ujung Pandang / Hasanuddin

Current Time: Apr 2, 2015 at 1:03:30 AM

Latest Report: Apr 2, 2015 at 12:30 AM


Visibility: 6 mi

Pressure: 29.80 "Hg

Humidity: 100%

Dew point: 77 °F

Location of MakassarLocation

Historic Weather in Makassar — Graph

°F

Makassar temperature yesterday

Maximum temperature yesterday: 90 °F (at 10:00 AM)
Minimum temperature yesterday: 75 °F (at 12:00 AM)
Average temperature yesterday: 80 °F

Past Weeks' High & Low Weather Summary

 TemperatureHumidityPressure
High91 °F (Mar 19, 11:00 AM)100% (Mar 17, 11:00 PM)29.98 "Hg (Mar 17, 11:00 PM)
Low73 °F (Mar 18, 4:00 AM)52% (Mar 30, 10:00 AM)29.74 "Hg (Mar 18, 3:30 PM)
Average81 °F85%29.86 "Hg
* Reported Mar 17 11:00 PM — Apr 1 11:30 PM, Makassar, Weather by CustomWeather, © 2015

Note: Actual official high and low records may vary slightly from our data, if they occured in-between our weather recording intervals... More about our weather records

Advertising

Makassar weather history for previous 24 hours

 ConditionsComfort  
Time TempWeatherWind HumidityBarometerVisibility
11:30 PM
Wed, Apr 1
77 °FPassing clouds.2 mph100%29.80 "Hg6 mi
11:00 PM77 °FPassing clouds.3 mph100%29.83 "Hg6 mi
10:30 PM77 °FPassing clouds.2 mph100%29.83 "Hg6 mi
10:00 PM77 °FPassing clouds.1 mph100%29.80 "Hg6 mi
9:30 PM77 °FPassing clouds.2 mph100%29.80 "Hg6 mi
9:00 PM79 °FPassing clouds.1 mph100%29.80 "Hg6 mi
8:30 PM79 °FPassing clouds.3 mph100%29.80 "Hg6 mi
8:00 PM79 °FPassing clouds.1 mph100%29.80 "Hg6 mi
7:30 PM79 °FPassing clouds.2 mph100%29.77 "Hg6 mi
7:00 PM79 °FPassing clouds.3 mph100%29.77 "Hg6 mi
6:30 PM79 °FPassing clouds.3 mph100%29.74 "Hg6 mi
6:00 PM79 °FPassing clouds.2 mph100%29.74 "HgN/A
5:30 PM79 °FPassing clouds.5 mph100%29.74 "HgN/A
5:00 PM79 °FPassing clouds.5 mph94%29.74 "HgN/A
4:30 PM79 °FPassing clouds.8 mph94%29.77 "HgN/A
4:00 PM79 °FPassing clouds.6 mph94%29.77 "Hg6 mi
3:30 PM79 °FScattered clouds.3 mph94%29.77 "Hg6 mi
3:00 PM77 °FThunderstorms. Scattered clouds.8 mph100%29.74 "Hg4 mi
2:30 PM79 °FThunderstorms. Partly sunny.14 mph94%29.77 "Hg2 mi
2:00 PM81 °FThunderstorms. Scattered clouds.7 mph94%29.77 "Hg4 mi
1:30 PM86 °FThunderstorms. Scattered clouds.9 mph79%29.77 "Hg4 mi
1:00 PM90 °FScattered clouds.9 mph71%29.77 "Hg5 mi
12:30 PM88 °FScattered clouds.8 mph70%29.80 "HgN/A
12:00 PM90 °FPassing clouds.8 mph71%29.80 "HgN/A
11:30 AM88 °FScattered clouds.7 mph70%29.83 "HgN/A
11:00 AM88 °FPassing clouds.5 mph70%29.83 "HgN/A
10:30 AM90 °FPassing clouds.2 mph67%29.83 "HgN/A
10:00 AM90 °FPassing clouds.1 mph67%29.86 "HgN/A
9:30 AM88 °FPassing clouds.2 mph66%29.86 "HgN/A
9:00 AM88 °FPassing clouds.2 mph70%29.86 "HgN/A
8:30 AM84 °FPassing clouds.3 mph74%29.86 "HgN/A
8:00 AM82 °FPassing clouds.3 mph79%29.86 "HgN/A
7:30 AM77 °FPassing clouds.3 mph94%29.86 "HgN/A
7:00 AM75 °FPassing clouds.2 mph100%29.83 "Hg6 mi
6:30 AM75 °FPassing clouds.3 mph100%29.83 "Hg6 mi
6:00 AM75 °FPassing clouds.2 mph100%29.83 "Hg6 mi
5:30 AM75 °FPassing clouds.2 mph100%29.83 "Hg5 mi
4:00 AM75 °FPassing clouds.3 mph100%29.83 "Hg5 mi
3:00 AM75 °FPassing clouds.2 mph100%29.83 "Hg5 mi
2:30 AM75 °FPassing clouds.2 mph100%29.83 "Hg5 mi
2:00 AM75 °FPassing clouds.2 mph100%29.86 "Hg5 mi
1:30 AM75 °FPassing clouds.3 mph100%29.86 "Hg5 mi
1:00 AM75 °FPassing clouds.2 mph100%29.86 "Hg5 mi
Weather by CustomWeather, © 2015

See weather overviewHow to use our weather pages